Location: São Paulo
(23.5507°S, 46.6334°W)
Time: 07:43:49
(UTC-03:00)

Explorer 7 - Pass Details

Date: 25 February 2026
Orbit: 430 x 541 km, 50.2° (Epoch: 10 March)

Event Time Altitude Azimuth Distance (km) Brightness Sun altitude
Rises 06:48:46 0° 207° (SSW) 2,589 10.0 10.2°
Reaches altitude 10° 06:51:22 10° 192° (SSW) 1,677 9.3 10.8°
Maximum altitude 06:54:22 22° 139° (SE) 1,086 9.2 11.5°
Drops below altitude 10° 06:57:16 10° 86° (E) 1,611 11.8 12.2°
Sets 06:59:42 0° 70° (ENE) 2,458 11.4 12.7°
